Location: Izdebno
(52.6670°N, 16.2170°E)
Time: 03:08:50
(UTC+02:00)

SR - Pass Details

Date: 26 February 2024
Orbit: 577 x 862 km, 66.7° (Epoch: 22 April)

Event Time Altitude Azimuth Distance (km) Brightness Sun altitude
Rises 22:02:54 0° 319° (NW) 3,298 ? -39.2°
Reaches altitude 10° 22:05:31 10° 326° (NW) 2,321 ? -39.5°
Enters shadow 22:07:05 19° 333° (NNW) 1,764 ? -39.6°
Maximum altitude 22:10:37 47° 40° (NE) 960 - -40.0°
Drops below altitude 10° 22:15:18 10° 114° (ESE) 2,122 - -40.4°
Sets 22:17:35 0° 121° (ESE) 2,988 - -40.6°
